Regional Weather Roundup
Issued by NWS Charleston, SC

Current Version | Previous Version | Graphics & Text | Print | Product List | Glossary On
Versions: 1 2 3 4 5 6 7 8 9 10 11 12 13 14 15 16 17 18 19 20 21 22 23 24 25 26 27 28 29 30 31 32 33 34 35 36 37 38 39 40 41 42 43 44 45 46 47 48 49 50
088
ASUS42 KCHS 240713
RWRCHS

REGIONAL WEATHER ROUNDUP
NATIONAL WEATHER SERVICE CHARLESTON SC
300 AM EDT TUE MAY 24 2016

NOTE: "FAIR" INDICATES FEW OR NO CLOUDS BELOW 12,000 FEET WITH NO
SIGNIFICANT WEATHER AND/OR OBSTRUCTIONS TO VISIBILITY.

NOT ALL STATIONS ARE QUALITY CONTROLLED. USE DATA WITH CAUTION...
ESPECIALLY DEWPOINT OBSERVATIONS.

SCZ027-030-031-034>040-042>050-240800-
...SOUTHEAST SOUTH CAROLINA...

CITY           SKY/WX    TMP DP  RH WIND       PRES   REMARKS
N CHARLESTON   PTCLDY    60  54  80 CALM      30.06F
WATERFRONT PRK   N/A     68  59  73 E5        30.05F
MOUNT PLEASANT FAIR      57  55  94 CALM      30.06F
JOHNS ISLAND   FAIR      61  57  88 CALM      30.06F
PINOPOLIS        N/A     64  55  72 VRB2      29.97F
MONCKS CORNER  FAIR      52  50  93 CALM      30.07S
SUMMERVILLE    PTSUNNY   55  55 100 CALM      30.08S
BEAUFORT MCAS  CLEAR     66  58  75 NE5       30.05F
BEAUFORT ARPT  FAIR      68  59  73 NE5       30.05S
HILTON HEAD IS CLEAR     64  61  88 CALM      30.05F
WALTERBORO     PTSUNNY   61  59  94 CALM      30.07S
ALLENDALE      PTSUNNY   61  55  82 CALM      30.06S

...SOUTHERN MIDLANDS AND PEE DEE...

CITY           SKY/WX    TMP DP  RH WIND       PRES   REMARKS
GEORGETOWN     FAIR      52  50  93 CALM      30.07S
KINGSTREE      FAIR      52  48  87 CALM      30.06F
ORANGEBURG     MOCLDY    59  56  89 CALM      30.06F
BARNWELL       FAIR      64  59  82 CALM      30.07S
AIKEN          PTSUNNY   61  52  72 E5        30.09F
MANNING        FAIR      52  50  93 CALM      30.07S
COLUMBIA       MOCLDY    64  53  67 E5        30.06S
SUMTER         PTCLDY    58  53  83 CALM      30.05R
FLORENCE       CLEAR     54  52  93 SW3       30.06F
MYRTLE BEACH   CLEAR     57  48  72 CALM      30.07S
N MYRTLE BEACH FOG       55  54  96 CALM      30.05S VSB 3/4

$$

GAZ063-065-086>088-099>101-113>116-118-119-134>141-150-240800-
...SOUTHEAST GEORGIA...

CITY           SKY/WX    TMP DP  RH WIND       PRES   REMARKS
SAVANNAH ARPT  CLEAR     66  59  78 E6        30.05F
HUNTER AAF     CLEAR     64  63  94 CALM      30.02F
FORT STEWART   CLEAR     60  58  91 CALM      30.02S
STATESBORO     CLEAR     60  58  96 CALM      30.05S
SYLVANIA       SUNNY     64  57  78 SE3       30.06S
CLAXTON        FAIR      58  58  99 CALM      30.05S

...CSRA...CENTRAL AND FAR SOUTHEAST GEORGIA...

CITY           SKY/WX    TMP DP  RH WIND       PRES   REMARKS
THOMSON        CLEAR     57  57 100 CALM      30.10S
AUGUSTA-BUSH   PTCLDY    57  55  93 CALM      30.05S
AUGUSTA-DANIEL PTCLDY    65  52  62 SE5       30.06S
SWAINSBORO     FAIR      63  54  72 E6        30.05F
VIDALIA        CLEAR     63  57  82 CALM      30.03F
EASTMAN        PTSUNNY   59  59 100 CALM      30.06S
HAZLEHURST     FAIR      65  57  75 S3        30.02F
ALMA           CLEAR     58  57  97 CALM      30.03S
WAYCROSS       CLEAR     65  58  76 S3        30.03F
JESUP          FAIR      54  52  94 CALM      30.04S
BAXLEY         FAIR      61  59  94 CALM      30.03F
BRUNSWICK      CLEAR     63  61  94 CALM      30.04S
SAINT SIMONS   CLEAR     73  61  65 S6        30.03F

$$

SCZ027-028-034-036>038-045-046-048>050-GAZ119-141-240800-
...LAKE AND SUPPLEMENTAL COASTAL OBSERVATIONS...

STATION/POSITION TIME  TEMP    WIND        PRES    WAVE   SWELL
                       AIR SEA DIR/SP/G            HT/PER HT/PER/DIR
                 (UTC) (F)     (DEG/KT/KT) (MB)    (FT/S) (FT/S/D)
WINYAH BAY       NOT AVBL
LAKE MURRAY      0600   65      80/  3/  6 1017.6S
ACE BASIN NERRS  NOT AVBL
FORT PULASKI     0600   70 76  120/  2/  2 1017.9F
SAPELO ISLAND    0600   67     140/  4     1017.0F

$$

ANZ835-935-AMZ111-154-330-350-352-354-370-450-454-472-240800-
...C-MAN AND BUOY OBSERVATIONS...

STATION/POSITION TIME  TEMP    WIND        PRES    WAVE   SWELL
                       AIR SEA DIR/SP/G            HT/PER HT/PER/DIR
                 (UTC) (F)     (DEG/KT/KT) (MB)    (FT/S) (FT/S/D)
BUOY 41004       0650   71 75  360/  4/  6 1017.6F   3/ 9   2/ 9
BUOY 41008       0650   76 76  120/  6/  8 1017.2F   2/ 9   2/100/ 9
FOLLY BEACH CMAN 0700   69      50/  6/  7 1017.8F
CAPERS NEARSHORE 0608   69 74   40/  6/  8 1017.8S
FRIPP NEARSHORE  0608   73 75   80/ 10/ 12 1017.1F


STATION/POSITION TIME  TEMP    WIND        PRES    WAVE   SWELL
                       AIR SEA DIR/SP/G            HT/PER HT/PER/DIR
                 (UTC) (F)     (DEG/KT/KT) (MB)    (FT/S) (FT/S/D)
5E ST. MARYS GA  0621      77                N/A     2/10
FRYING PAN BUOY  0600   67 76  350/ 12/ 14 1017.0R
BUOY 41025       0650   64 67  280/ 14/ 14 1015.2R   4/ 9   3/ 70/ 9
CAPE LOOKOUT NC  0700   63     290/ 10/ 11 1015.8F
BUOY 41002       0650   73 77  270/ 14/ 17 1016.0F   4/ 6   2/ 90/ 9
BUOY 41010       0620   77 78   40/  6/  8 1017.1F
ST AUGUSTINE FL  0700   71 79  230/  4/  4 1017.5F


$$




USA.gov is the U.S. government's official web portal to all federal, state and local government web resources and services.